Location: Newark
(45.7667°N, 11.5167°E)
Time: 22:22:07
(UTC+00:00)

Envisat - Pass Details

Date: 24 January 2020
Orbit: 764 x 766 km, 98.1° (Epoch: 19 February)

Event Time Altitude Azimuth Distance (km) Brightness Sun altitude
Rises 05:08:21 0° 23° (NNE) 3,242 6.4 -16.7°
Reaches altitude 10° 05:10:58 10° 34° (NE) 2,311 5.8 -16.3°
Maximum altitude 05:15:23 29° 94° (E) 1,373 5.1 -15.5°
Drops below altitude 10° 05:19:46 10° 155° (SSE) 2,295 6.0 -14.8°
Sets 05:22:20 0° 166° (SSE) 3,216 6.6 -14.3°
